Regional Weather Roundup
Issued by NWS

Home | Current Version | Previous Version | Text Only | Print | Product List | Glossary Off
Versions: 1 2 3 4 5 6 7 8 9 10 11 12 13 14 15 16 17 18 19 20 21 22 23 24 25 26 27 28 29 30 31 32 33 34 35 36 37 38 39 40 41 42 43 44 45 46 47 48 49 50

000
ASUS43 KBIS 031801
RWRND

NORTH DAKOTA REGIONAL WEATHER ROUNDUP
NATIONAL WEATHER SERVICE BISMARCK ND
100 PM CDT SUN MAY 03 2015

NOTE: "FAIR" INDICATES FEW OR NO CLOUDS BELOW 12,000 FEET WITH NO
SIGNIFICANT WEATHER AND/OR OBSTRUCTIONS TO VISIBILITY.


NDZ001>003-009>011-017-031900-
NORTHWEST NORTH DAKOTA

CITY           SKY/WX    TMP DP  RH WIND       PRES   REMARKS
WILLISTON      LGT RAIN  60  25  26 NW14      30.04S
6HR MIN TEMP:  39; 6HR MAX TEMP:  60; 6HR PCP: TRACE;

MINOT          SUNNY     60  26  27 W18G29    29.99R
MINOT AFB      SUNNY     61  28  28 NW17      29.98R
$$

NDZ018>021-031>035-040>046-031900-
SOUTHWEST NORTH DAKOTA

CITY           SKY/WX    TMP DP  RH WIND       PRES   REMARKS
BISMARCK       SUNNY     64  25  22 NW18G25   29.99S
6HR MIN TEMP:  52; 6HR MAX TEMP:  64; 6HR PCP: TRACE;

DICKINSON      SUNNY     60  28  29 NW13G20   30.02R
GARRISON         N/A     62  23  22 NW12G31   30.00R
6HR MIN TEMP:  48; 6HR MAX TEMP:  63;

HETTINGER ARPT PTSUNNY   55  31  39 N8        30.04R
$$

NDZ004>008-012>016-024-026-027-054-031900-
NORTHEAST NORTH DAKOTA

CITY           SKY/WX    TMP DP  RH WIND       PRES   REMARKS
GRAND FORKS    CLOUDY    64  29  26 NW16G23   29.90S
GRND FRKS AFB  CLOUDY    65  26  22 NW17G29   29.90S
DEVILS LAKE    SUNNY     63  25  23 NW24G30   29.92S
$$

NDZ022-023-025-028>030-036>039-047>053-031900-
SOUTHEAST NORTH DAKOTA

CITY           SKY/WX    TMP DP  RH WIND       PRES   REMARKS
FARGO          PTSUNNY   63  32  31 N20G28    29.91R
6HR MIN TEMP:  49; 6HR MAX TEMP:  64;

JAMESTOWN      CLOUDY    62  28  27 N26G35    29.93R
$$




USA.gov is the U.S. government's official web portal to all federal, state and local government web resources and services.